Location: Haliburton Scout Reserve
(45.0900°N, 78.3200°W)
Time: 08:58:21
(UTC-04:00)

S-56A Canister/Altair - Pass Details

Date: 29 January 2023
Orbit: 639 x 2493 km, 38.9° (Epoch: 27 March)

Event Time Altitude Azimuth Distance (km) Brightness Sun altitude
Rises 19:27:41 0° 272° (W) 4,557 12.9 -23.2°
Reaches altitude 10° 19:31:43 10° 255° (WSW) 3,903 12.1 -23.9°
Maximum altitude 19:38:06 18° 217° (SW) 3,729 11.4 -25.0°
Drops below altitude 10° 19:45:44 10° 181° (S) 4,781 11.5 -26.4°
Sets 19:51:39 0° 166° (SSE) 6,011 11.9 -27.4°
